DW7259 Weather Reports


Display with metric or nautical units.
time (UTC)temp
F
wind
direction
speed
MPH
gust
MPH
rain 1hr
in
rain 24hr
in
rain mn
in
humidity
%
barometer
mb
20260510160040 64 223 0.0 3.0 0.00 0.00 0.00 34 1008.3
20260510154535 62 223 0.0 2.0 0.00 0.00 0.00 36 1008.3
20260510153040 60 223 0.0 4.0 0.00 0.00 0.00 37 1008.4
20260510151532 58 223 0.0 2.0 0.00 0.00 0.00 40 1008.4
20260510150022 56 223 0.0 3.0 0.00 0.00 0.00 43 1008.5
20260510144521 55 223 1.0 3.0 0.00 0.00 0.00 43 1008.3
20260510143022 53 223 0.0 2.0 0.00 0.00 0.00 46 1008.2
20260510141521 51 223 0.0 0.0 0.00 0.00 0.00 49 1008.1
20260510140017 50 223 0.0 0.0 0.00 0.00 0.00 53 1008.0
20260510134516 49 223 0.0 1.0 0.00 0.00 0.00 53 1007.9
20260510133014 49 223 0.0 0.0 0.00 0.00 0.00 54 1007.8
20260510131511 49 223 0.0 0.0 0.00 0.00 0.00 50 1007.8
20260510130023 49 223 0.0 0.0 0.00 0.00 0.00 52 1007.8
20260510124504 49 223 0.0 0.0 0.00 0.00 0.00 47 1007.8
20260510123003 50 223 0.0 0.0 0.00 0.00 0.00 44 1008.0
20260510121500 50 223 0.0 0.0 0.00 0.00 0.00 44 1007.9
20260510120059 50 223 0.0 2.0 0.00 0.00 0.00 44 1008.0
20260510114606 50 223 0.0 2.0 0.00 0.00 0.00 42 1008.1
20260510113057 51 223 0.0 0.0 0.00 0.00 0.00 41 1008.1
20260510111557 51 223 0.0 0.0 0.00 0.00 0.00 41 1008.2
20260510110053 52 223 0.0 0.0 0.00 0.00 0.00 39 1008.1
20260510104555 53 223 0.0 0.0 0.00 0.00 0.00 38 1008.1
20260510103046 53 223 0.0 0.0 0.00 0.00 0.00 36 1008.2
20260510101544 54 223 0.0 2.0 0.00 0.00 0.00 35 1008.1
20260510100042 54 223 0.0 2.0 0.00 0.00 0.00 35 1008.1
20260510094541 55 223 0.0 3.0 0.00 0.00 0.00 35 1008.1
20260510093038 55 223 0.0 0.0 0.00 0.00 0.00 33 1008.1
20260510091539 56 223 0.0 3.0 0.00 0.00 0.00 32 1008.0
20260510090038 55 223 0.0 4.0 0.00 0.00 0.00 33 1008.1
20260510084537 56 223 0.0 2.0 0.00 0.00 0.00 33 1008.0
20260510083036 56 223 0.0 0.0 0.00 0.00 0.00 32 1008.0
20260510081535 57 223 0.0 2.0 0.00 0.00 0.00 32 1008.0
20260510080029 57 223 0.0 0.0 0.00 0.00 0.00 30 1008.0
20260510074528 58 223 0.0 0.0 0.00 0.00 0.00 30 1008.0
20260510073024 58 223 0.0 1.0 0.00 0.00 0.00 30 1008.0
20260510071521 59 223 0.0 0.0 0.00 0.00 0.00 28 1008.0
20260510070018 60 223 0.0 4.0 0.00 0.00 0.00 27 1008.0
20260510064529 61 223 0.0 2.0 0.00 0.00 0.00 26 1008.0
20260510063017 62 223 1.0 5.0 0.00 0.00 0.00 24 1007.9
20260510061523 62 223 1.0 4.0 0.00 0.00 0.00 24 1007.7
20260510060015 63 223 0.0 4.0 0.00 0.00 0.00 23 1007.7
20260510054515 63 223 0.0 4.0 0.00 0.00 0.00 23 1007.7
20260510053022 63 223 1.0 5.0 0.00 0.00 0.00 24 1007.6
20260510051514 62 223 0.0 2.0 0.00 0.00 0.00 25 1007.6
20260510050013 62 223 0.0 2.0 0.00 0.00 0.00 28 1007.6
20260510044518 63 223 0.0 2.0 0.00 0.00 0.00 28 1007.5
20260510043016 64 223 0.0 2.0 0.00 0.00 0.00 26 1007.4
20260510041515 64 223 0.0 1.0 0.00 0.00 0.00 26 1007.3
20260510040012 65 223 0.0 3.0 0.00 0.00 0.00 24 1007.1
20260510034521 66 223 0.0 1.0 0.00 0.00 0.00 23 1006.9
20260510033018 67 223 0.0 2.0 0.00 0.00 0.00 23 1006.7
20260510031510 69 223 0.0 4.0 0.00 0.00 0.00 21 1006.5
20260510030018 71 223 0.0 4.0 0.00 0.00 0.00 20 1006.2
20260510024513 73 223 0.0 3.0 0.00 0.00 0.00 19 1006.0
20260510023009 75 223 0.0 3.0 0.00 0.00 0.00 16 1005.9
20260510021517 76 223 2.0 7.0 0.00 0.00 0.00 14 1005.8
20260510020007 77 223 1.0 6.0 0.00 0.00 0.00 16 1005.8
20260510014508 77 223 4.0 9.0 0.00 0.00 0.00 14 1005.8
20260510013007 77 223 0.0 2.0 0.00 0.00 0.00 16 1005.9
20260510011504 78 223 3.0 7.0 0.00 0.00 0.00 13 1006.0
20260510010004 78 223 0.0 6.0 0.00 0.00 0.00 15 1006.0
20260510004502 78 223 2.0 6.0 0.00 0.00 0.00 13 1006.0
20260510003002 79 223 0.0 2.0 0.00 0.00 0.00 14 1006.1
20260510001603 79 223 0.0 4.0 0.00 0.00 0.00 13 1006.1
20260510000058 79 223 3.0 8.0 0.00 0.00 0.00 14 1006.2
20260509234614 80 223 1.0 6.0 0.00 0.00 0.00 13 1006.3
20260509233057 80 223 0.0 5.0 0.00 0.00 0.00 14 1006.4
20260509231601 80 223 3.0 9.0 0.00 0.00 0.00 15 1006.3
20260509230058 80 200 1.0 8.0 0.00 0.00 0.00 15 1006.5
20260509224559 80 198 3.0 7.0 0.00 0.00 0.00 14 1006.6
20260509223053 81 177 2.0 6.0 0.00 0.00 0.00 15 1006.9
20260509221547 81 177 2.0 9.0 0.00 0.00 0.00 16 1007.3
20260509220046 81 172 0.0 6.0 0.00 0.00 0.00 16 1007.3
20260509214546 81 172 2.0 11.0 0.00 0.00 0.00 17 1007.4
20260509213044 81 172 3.0 6.0 0.00 0.00 0.00 16 1007.5
20260509211542 81 172 3.0 11.0 0.00 0.00 0.00 17 1007.7
20260509210047 80 172 2.0 7.0 0.00 0.00 0.00 20 1007.8
20260509204539 80 360 2.0 9.0 0.00 0.00 0.00 18 1008.0
20260509203045 78 119 1.0 10.0 0.00 0.00 0.00 20 1008.2
20260509201532 78 360 7.0 12.0 0.00 0.00 0.00 19 1008.3
20260509200030 77 144 0.0 11.0 0.00 0.00 0.00 21 1008.5
20260509194528 76 98 2.0 10.0 0.00 0.00 0.00 20 1008.9
20260509193024 77 360 4.0 12.0 0.00 0.00 0.00 22 1009.1
20260509191520 75 76 4.0 9.0 0.00 0.00 0.00 23 1009.4
20260509190017 74 75 3.0 10.0 0.00 0.00 0.00 24 1009.6
20260509184523 74 84 2.0 8.0 0.00 0.00 0.00 23 1009.7
20260509183011 74 76 3.0 9.0 0.00 0.00 0.00 25 1010.0
20260509181508 73 360 2.0 8.0 0.00 0.00 0.00 26 1010.0
20260509180005 72 360 6.0 12.0 0.00 0.00 0.00 25 1010.2
20260509174602 71 360 5.0 8.0 0.00 0.00 0.00 26 1010.1
20260509173109 71 172 1.0 6.0 0.00 0.00 0.00 29 1010.1
20260509171554 69 172 1.0 5.0 0.00 0.00 0.00 33 1010.2
20260509170052 67 172 1.0 6.0 0.00 0.00 0.00 32 1010.3
20260509164543 66 172 1.0 4.0 0.00 0.00 0.00 35 1010.3
20260509163038 66 172 2.0 6.0 0.00 0.00 0.00 34 1010.3
20260509161541 65 172 0.0 5.0 0.00 0.00 0.00 39 1010.4